FENGYUN 1C DEB, 35200

Orbit data source: Space-Track

FENGYUN 1C DEB, 35200 is space debris in SSO originally from a launch on Mon, 10 May 1999 UTC launched from the Taiyaun Space Center, China (TSC). Fengyun 1C debris stems from the Chinese weather satellite Fengyun-1C, which was intentionally destroyed by a Chinese anti-satellite missile in 2007. This event dramatically increased the amount of space debris, with thousands of trackable fragments posing hazards to satellites and human spaceflight. The Fengyun 1C debris cloud has become a focal point in discussions about space sustainability and the need for international regulations to prevent the creation of new debris.

Loading next visibility...
Identifier
35200, 1999-025DPG
Orbit
SSO
Country
Flag of CNCN / PRC
Related business
Manufacturer
Unknown
Mission
Spacecraft
Bus & Motor
Unknown
Mass
Unknown
Launch date (UTC)
1999-05-10 (27 years ago)
Launch vehicle
Unknown
Launch site
Taiyaun Space Center, China (TSC)
Object type
Payload
Rocket body
Debris
Shape & HBR
Unknown shape, 0.1 m
Radar Cross Section
Small (<0.1 m²)

Expand to show TLE details & history
Last TLE update: 16 hours ago

TLE from 16 hours ago
0 FENGYUN 1C DEB
1 35200U 99025DPG 26123.87287560  .00000305  00000-0  41775-3 0  9997
2 35200  98.8905  89.4708 0353538  62.3269 354.6559 13.42060851678101
Epoch: 2026-05-03T20:56Z
TLE epoch observation values (Epoch: 2026-05-03T20:56:56.451Z)
Latitude
55.65927°
Longitude
-99.69886°
Altitude
847.539 km
Speed
7.564 km/s
True Right ascension
05h 05m 13s
True Declination
55° 30' 03"
Sunlit
Object was in daylight at epoch
Visualization orbit readout
Latitude
Unknown
Longitude
Unknown
Altitude
Unknown
Speed
Unknown
Apparent Right ascension
Unknown
Apparent Declination
Unknown
Sunlit
N/A
Visualization observer readout
Local Sidereal Time
21:03:35
Azimuth
Unknown
Elevation
Unknown
Doppler factor
Unknown
Orbital elements
Apogee altitude
1,363.22 km
Perigee altitude
834.538 km
Semi-major axis
7,477.016 km
Eccentricity
0.03535
Inclination
98.8905°
RAAN
89.4708°
Arg. of periapsis
62.3269°
True anomaly
354.26125°
Mean anomaly
354.6559°
Eccentric anomaly
354.46036°
Mean motion
3.35699 °/min
Orbital period
107.24 mins
BSTAR
0.00041775
Loading maneuver chart data...
Computing Atmospheric mass density...
Loading historical data...
Loading historical data...
Loading historical data...
Loading historical data...
Loading historical data...
Loading historical data...
Loading historical data...

Documentation

Showing up to 5 results
|